CZ-6A DEB, 60836

Orbit data source: Space-Track

CZ-6A DEB, 60836 is space debris in LEO originally from a launch on Tue, 06 Aug 2024 UTC launched from the Taiyaun Space Center, China (TSC). Debris objects in space refer to the collection of defunct objects orbiting the Earth. Examples of debris include non-operational satellites, rocket bodies, and fragments generated from explosions, collisions, or faulty payload assembly.

Loading next visibility...
Identifier
60836, 2024-140HP
Orbit
LEO
Country
Flag of CNCN / PRC
Related business
Manufacturer
SAST
Mission
Spacecraft
Bus & Motor
Unknown
Mass
Unknown
Launch date (UTC)
2024-08-06 (1 year ago)
Launch vehicle
Unknown
Launch site
Taiyaun Space Center, China (TSC)
Object type
Payload
Rocket body
Debris
Shape & HBR
Unknown shape, 0.2 m
Radar Cross Section
Small (<0.1 m²)

Expand to show TLE details & history
Last TLE update: 13 hours ago

TLE from 13 hours ago
0 CZ-6A DEB
1 60836U 24140HP  25284.76708906  .00008900  00000-0  16147-2 0  9996
2 60836  88.9892 299.2166 0110076  20.9503 339.6168 14.62253562 61142
Epoch: 2025-10-11T18:24Z
TLE epoch observation values (Epoch: 2025-10-11T18:24:36.494Z)
Latitude
Longitude
2.47069°
Altitude
616.22 km
Speed
7.59 km/s
True Right ascension
19h 56m 51s
True Declination
0° 00' 00"
Sunlit
Object was in daylight at epoch
Visualization orbit readout
Latitude
Unknown
Longitude
Unknown
Altitude
Unknown
Speed
Unknown
Apparent Right ascension
Unknown
Apparent Declination
Unknown
Sunlit
N/A
Visualization observer readout
Local Sidereal Time
01:51:50
Azimuth
Unknown
Elevation
Unknown
Doppler factor
Unknown
Orbital elements
Apogee altitude
760.521 km
Perigee altitude
605.073 km
Semi-major axis
7,060.934 km
Eccentricity
0.01101
Inclination
88.9892°
RAAN
299.2166°
Arg. of periapsis
20.9503°
True anomaly
339.17173°
Mean anomaly
339.6168°
Eccentric anomaly
339.39484°
Mean motion
3.65805 °/min
Orbital period
98.41 mins
BSTAR
0.0016147
Loading maneuver chart data...
Computing Atmospheric mass density...
Loading historical data...
Loading historical data...
Loading historical data...
Loading historical data...
Loading historical data...
Loading historical data...
Loading historical data...

Documentation

Showing up to 5 results
|